Time,TemperatureF,DewpointF,PressureIn,WindDirection,WindDirectionDegrees,WindSpeedMPH,WindSpeedGustMPH,Humidity,HourlyPrecipIn,Conditions,Clouds,dailyrainin,SoftwareType,DateUTC
2013-04-23 00:02:00,40.0,37.0,30.06,NNW,345,7.0,12.0,89,0.00,,,0.24,,2013-04-23 05:02:00,
2013-04-23 00:12:00,40.0,37.0,30.06,NNW,345,7.0,12.0,89,0.00,,,0.24,,2013-04-23 05:12:00,
2013-04-23 00:22:00,40.0,37.0,30.06,NNW,327,5.0,11.0,89,0.00,,,0.24,,2013-04-23 05:22:00,
2013-04-23 00:32:00,40.0,37.0,30.10,NNW,329,6.0,12.0,88,0.00,,,0.24,,2013-04-23 05:32:00,
2013-04-23 00:42:00,40.0,37.0,30.10,NNW,329,6.0,12.0,88,0.00,,,0.24,,2013-04-23 05:42:00,
2013-04-23 00:52:00,40.0,37.0,30.10,WNW,298,8.0,13.0,88,0.00,,,0.24,,2013-04-23 05:52:00,
2013-04-23 01:01:00,39.0,36.0,30.13,NNW,327,6.0,15.0,88,0.00,,,0.24,,2013-04-23 06:01:00,
2013-04-23 01:12:00,39.0,36.0,30.13,NNW,327,6.0,15.0,88,0.00,,,0.24,,2013-04-23 06:12:00,
2013-04-23 01:21:00,39.0,36.0,30.13,NW,325,10.0,18.0,88,0.00,,,0.24,,2013-04-23 06:21:00,
2013-04-23 01:33:00,38.0,35.0,30.09,NNW,347,8.0,14.0,88,0.00,,,0.24,,2013-04-23 06:33:00,
2013-04-23 01:42:00,38.0,35.0,30.09,NNW,347,8.0,14.0,88,0.00,,,0.24,,2013-04-23 06:42:00,
2013-04-23 01:52:00,37.0,34.0,30.07,North,349,7.0,16.0,88,0.00,,,0.24,,2013-04-23 06:52:00,
2013-04-23 02:02:00,37.0,34.0,30.08,NNW,346,7.0,13.0,88,0.00,,,0.24,,2013-04-23 07:02:00,
2013-04-23 02:11:00,37.0,34.0,30.08,NNW,346,7.0,13.0,88,0.00,,,0.24,,2013-04-23 07:11:00,
2013-04-23 02:21:00,37.0,34.0,30.10,NNW,346,4.0,9.0,89,0.00,,,0.24,,2013-04-23 07:21:00,
2013-04-23 02:32:00,36.0,33.0,30.12,North,354,7.0,14.0,87,0.00,,,0.24,,2013-04-23 07:32:00,
2013-04-23 02:42:00,36.0,33.0,30.12,North,354,7.0,14.0,87,0.00,,,0.24,,2013-04-23 07:42:00,
2013-04-23 02:52:00,36.0,33.0,30.14,NNW,337,7.0,14.0,87,0.00,,,0.24,,2013-04-23 07:52:00,
2013-04-23 03:02:00,36.0,33.0,30.11,North,357,9.0,16.0,88,0.02,,,0.26,,2013-04-23 08:02:00,
2013-04-23 03:11:00,36.0,33.0,30.11,North,357,9.0,16.0,88,0.02,,,0.26,,2013-04-23 08:11:00,
2013-04-23 03:21:00,35.0,32.0,30.11,North,353,9.0,13.0,88,0.03,,,0.27,,2013-04-23 08:21:00,
2013-04-23 03:32:00,35.0,32.0,30.14,NW,318,6.0,12.0,89,0.04,,,0.28,,2013-04-23 08:32:00,
2013-04-23 03:42:00,35.0,32.0,30.14,NW,318,6.0,12.0,89,0.04,,,0.28,,2013-04-23 08:42:00,
2013-04-23 03:52:00,35.0,32.0,30.12,NNW,345,8.0,14.0,88,0.05,,,0.29,,2013-04-23 08:52:00,
2013-04-23 04:01:00,35.0,32.0,30.12,North,350,10.0,15.0,89,0.05,,,0.31,,2013-04-23 09:01:00,
2013-04-23 04:11:00,35.0,32.0,30.12,North,350,10.0,15.0,89,0.05,,,0.31,,2013-04-23 09:11:00,
2013-04-23 04:21:00,35.0,32.0,30.12,North,359,8.0,14.0,89,0.05,,,0.32,,2013-04-23 09:21:00,
2013-04-23 04:33:00,34.0,31.0,30.11,North,359,9.0,18.0,88,0.05,,,0.33,,2013-04-23 09:33:00,
2013-04-23 04:42:00,34.0,31.0,30.11,North,359,9.0,18.0,88,0.05,,,0.33,,2013-04-23 09:42:00,
2013-04-23 04:52:00,34.0,31.0,30.12,North,353,9.0,15.0,88,0.04,,,0.33,,2013-04-23 09:52:00,
2013-04-23 05:02:00,34.0,31.0,30.13,North,0,7.0,14.0,88,0.03,,,0.34,,2013-04-23 10:02:00,
2013-04-23 05:13:00,34.0,31.0,30.13,North,0,7.0,14.0,88,0.03,,,0.34,,2013-04-23 10:13:00,
2013-04-23 05:22:00,34.0,31.0,30.11,North,5,8.0,16.0,88,0.02,,,0.34,,2013-04-23 10:22:00,
2013-04-23 05:33:00,34.0,31.0,30.13,North,355,8.0,14.0,88,0.02,,,0.35,,2013-04-23 10:33:00,
2013-04-23 05:42:00,34.0,31.0,30.13,North,355,8.0,14.0,88,0.02,,,0.35,,2013-04-23 10:42:00,
2013-04-23 05:52:00,34.0,31.0,30.12,North,0,10.0,15.0,88,0.03,,,0.36,,2013-04-23 10:52:00,
2013-04-23 06:03:00,34.0,31.0,30.11,North,2,7.0,14.0,88,0.02,,,0.36,,2013-04-23 11:03:00,
2013-04-23 06:12:00,34.0,31.0,30.12,North,1,5.0,11.0,88,0.03,,,0.37,,2013-04-23 11:12:00,
2013-04-23 06:21:00,34.0,31.0,30.12,North,1,5.0,11.0,88,0.03,,,0.37,,2013-04-23 11:21:00,
2013-04-23 06:32:00,34.0,31.0,30.12,North,352,4.0,9.0,89,0.02,,,0.37,,2013-04-23 11:32:00,
2013-04-23 06:42:00,34.0,31.0,30.12,North,359,7.0,10.0,88,0.01,,,0.37,,2013-04-23 11:42:00,
2013-04-23 06:52:00,34.0,31.0,30.12,North,359,7.0,10.0,88,0.01,,,0.37,,2013-04-23 11:52:00,
2013-04-23 07:02:00,33.0,30.0,30.10,North,354,6.0,15.0,88,0.01,,,0.37,,2013-04-23 12:02:00,
2013-04-23 07:12:00,33.0,30.0,30.10,North,354,6.0,15.0,88,0.01,,,0.37,,2013-04-23 12:12:00,
2013-04-23 07:22:00,33.0,30.0,30.10,North,3,8.0,11.0,88,0.00,,,0.37,,2013-04-23 12:22:00,
2013-04-23 07:32:00,33.0,30.0,30.11,North,354,7.0,12.0,88,0.01,,,0.38,,2013-04-23 12:32:00,
2013-04-23 07:41:00,33.0,30.0,30.11,North,354,7.0,12.0,88,0.01,,,0.38,,2013-04-23 12:41:00,
2013-04-23 07:51:00,33.0,30.0,30.13,NNW,336,4.0,8.0,88,0.01,,,0.38,,2013-04-23 12:51:00,
2013-04-23 08:01:00,33.0,30.0,30.15,North,352,6.0,14.0,87,0.01,,,0.38,,2013-04-23 13:01:00,
2013-04-23 08:11:00,33.0,30.0,30.15,North,352,6.0,14.0,87,0.01,,,0.38,,2013-04-23 13:11:00,
2013-04-23 08:21:00,33.0,30.0,30.15,North,354,9.0,14.0,88,0.01,,,0.38,,2013-04-23 13:21:00,
2013-04-23 08:32:00,32.0,30.0,30.16,North,359,6.0,13.0,91,0.00,,,0.38,,2013-04-23 13:32:00,
2013-04-23 08:41:00,32.0,30.0,30.16,North,359,6.0,13.0,91,0.00,,,0.38,,2013-04-23 13:41:00,
2013-04-23 08:52:00,32.0,30.0,30.17,North,355,9.0,13.0,91,0.00,,,0.38,,2013-04-23 13:52:00,
2013-04-23 09:02:00,32.0,30.0,30.17,North,355,7.0,14.0,92,0.00,,,0.38,,2013-04-23 14:02:00,
2013-04-23 09:11:00,32.0,30.0,30.17,North,355,7.0,14.0,92,0.00,,,0.38,,2013-04-23 14:11:00,
2013-04-23 09:22:00,31.0,29.0,30.17,North,356,6.0,13.0,92,0.00,,,0.38,,2013-04-23 14:22:00,
2013-04-23 09:32:00,32.0,30.0,30.15,North,355,5.0,10.0,92,0.00,,,0.38,,2013-04-23 14:32:00,
2013-04-23 09:42:00,32.0,30.0,30.15,North,355,5.0,10.0,92,0.00,,,0.38,,2013-04-23 14:42:00,
2013-04-23 09:52:00,32.0,30.0,30.15,North,352,6.0,9.0,92,0.00,,,0.38,,2013-04-23 14:52:00,
2013-04-23 10:01:00,32.0,30.0,30.15,North,352,6.0,9.0,92,0.00,,,0.38,,2013-04-23 15:01:00,
2013-04-23 10:12:00,32.0,30.0,30.15,North,357,7.0,11.0,92,0.00,,,0.38,,2013-04-23 15:12:00,
2013-04-23 10:21:00,32.0,30.0,30.16,North,356,7.0,10.0,92,0.00,,,0.38,,2013-04-23 15:21:00,
2013-04-23 10:32:00,32.0,30.0,30.17,North,350,7.0,11.0,92,0.00,,,0.38,,2013-04-23 15:32:00,
2013-04-23 10:42:00,32.0,30.0,30.17,North,350,7.0,11.0,92,0.00,,,0.38,,2013-04-23 15:42:00,
2013-04-23 10:53:00,32.0,30.0,30.18,North,351,6.0,12.0,92,0.00,,,0.38,,2013-04-23 15:53:00,
2013-04-23 11:03:00,32.0,30.0,30.17,North,7,7.0,12.0,92,0.00,,,0.38,,2013-04-23 16:03:00,
2013-04-23 11:12:00,32.0,30.0,30.17,North,7,7.0,12.0,92,0.00,,,0.38,,2013-04-23 16:12:00,
2013-04-23 11:23:00,32.0,30.0,30.17,North,349,5.0,8.0,92,0.00,,,0.38,,2013-04-23 16:23:00,
2013-04-23 11:34:00,32.0,30.0,30.17,North,354,6.0,8.0,93,0.00,,,0.38,,2013-04-23 16:34:00,
2013-04-23 11:42:00,32.0,30.0,30.17,North,354,6.0,8.0,93,0.00,,,0.38,,2013-04-23 16:42:00,
2013-04-23 11:52:00,32.0,30.0,30.18,NNW,348,5.0,9.0,93,0.00,,,0.38,,2013-04-23 16:52:00,
2013-04-23 12:02:00,32.0,30.0,30.18,NNW,329,6.0,11.0,92,0.02,,,0.40,,2013-04-23 17:02:00,
2013-04-23 12:11:00,32.0,30.0,30.18,NNW,342,6.0,12.0,92,0.02,,,0.40,,2013-04-23 17:11:00,
2013-04-23 12:22:00,32.0,30.0,30.18,NNW,342,6.0,12.0,92,0.02,,,0.40,,2013-04-23 17:22:00,
2013-04-23 12:32:00,32.0,30.0,30.18,North,352,7.0,10.0,92,0.03,,,0.41,,2013-04-23 17:32:00,
2013-04-23 12:42:00,32.0,30.0,30.18,North,352,7.0,10.0,92,0.03,,,0.41,,2013-04-23 17:42:00,
2013-04-23 12:53:00,32.0,30.0,30.18,NNW,340,5.0,11.0,92,0.04,,,0.42,,2013-04-23 17:53:00,
2013-04-23 13:02:00,32.0,30.0,30.17,NNW,346,7.0,10.0,92,0.03,,,0.43,,2013-04-23 18:02:00,
2013-04-23 13:12:00,32.0,30.0,30.17,NNW,346,7.0,10.0,92,0.03,,,0.43,,2013-04-23 18:12:00,
2013-04-23 13:22:00,32.0,30.0,30.17,NNW,339,6.0,11.0,92,0.03,,,0.43,,2013-04-23 18:22:00,
2013-04-23 13:32:00,33.0,31.0,30.18,North,349,6.0,10.0,92,0.03,,,0.44,,2013-04-23 18:32:00,
2013-04-23 13:42:00,33.0,31.0,30.18,North,349,6.0,10.0,92,0.03,,,0.44,,2013-04-23 18:42:00,
2013-04-23 13:52:00,33.0,31.0,30.17,North,353,4.0,9.0,93,0.03,,,0.45,,2013-04-23 18:52:00,
2013-04-23 14:02:00,33.0,31.0,30.17,NNW,338,6.0,13.0,93,0.02,,,0.45,,2013-04-23 19:02:00,
2013-04-23 14:11:00,33.0,31.0,30.17,NNW,338,6.0,13.0,93,0.02,,,0.45,,2013-04-23 19:11:00,
2013-04-23 14:21:00,33.0,31.0,30.17,North,353,6.0,12.0,93,0.03,,,0.46,,2013-04-23 19:21:00,
2013-04-23 14:32:00,33.0,31.0,30.17,NNW,345,7.0,13.0,93,0.02,,,0.46,,2013-04-23 19:32:00,
2013-04-23 14:42:00,33.0,31.0,30.17,NNW,345,7.0,13.0,93,0.02,,,0.46,,2013-04-23 19:42:00,
2013-04-23 14:52:00,33.0,31.0,30.17,North,358,6.0,9.0,92,0.01,,,0.46,,2013-04-23 19:52:00,
2013-04-23 15:01:00,34.0,32.0,30.17,NNW,332,5.0,8.0,92,0.01,,,0.46,,2013-04-23 20:01:00,
2013-04-23 15:11:00,34.0,32.0,30.17,NNW,332,5.0,8.0,92,0.01,,,0.46,,2013-04-23 20:11:00,
2013-04-23 15:21:00,34.0,32.0,30.17,North,349,5.0,12.0,91,0.00,,,0.46,,2013-04-23 20:21:00,
2013-04-23 15:32:00,34.0,31.0,30.17,NNW,337,4.0,9.0,90,0.00,,,0.46,,2013-04-23 20:32:00,
2013-04-23 15:42:00,34.0,31.0,30.17,NNW,337,4.0,9.0,90,0.00,,,0.46,,2013-04-23 20:42:00,
2013-04-23 15:51:00,35.0,32.0,30.16,NW,323,3.0,9.0,90,0.00,,,0.46,,2013-04-23 20:51:00,
2013-04-23 16:02:00,35.0,32.0,30.15,NNW,327,4.0,10.0,89,0.00,,,0.46,,2013-04-23 21:02:00,
2013-04-23 16:12:00,35.0,32.0,30.15,WNW,297,3.0,9.0,89,0.00,,,0.46,,2013-04-23 21:12:00,
2013-04-23 16:21:00,35.0,32.0,30.15,WNW,297,3.0,9.0,89,0.00,,,0.46,,2013-04-23 21:21:00,
2013-04-23 16:33:00,36.0,32.0,30.14,NNW,338,3.0,9.0,86,0.00,,,0.46,,2013-04-23 21:33:00,
2013-04-23 16:43:00,36.0,32.0,30.14,NNW,338,3.0,9.0,86,0.00,,,0.46,,2013-04-23 21:43:00,
2013-04-23 16:52:00,37.0,33.0,30.14,NNW,334,4.0,10.0,84,0.00,,,0.46,,2013-04-23 21:52:00,
2013-04-23 17:03:00,38.0,33.0,30.14,NNW,345,4.0,9.0,81,0.00,,,0.46,,2013-04-23 22:03:00,
2013-04-23 17:12:00,38.0,33.0,30.14,NNW,345,4.0,9.0,81,0.00,,,0.46,,2013-04-23 22:12:00,
2013-04-23 17:22:00,38.0,32.0,30.14,WNW,303,4.0,8.0,80,0.00,,,0.46,,2013-04-23 22:22:00,
2013-04-23 17:33:00,39.0,33.0,30.13,WNW,292,3.0,7.0,80,0.00,,,0.43,,2013-04-23 22:33:00,
2013-04-23 17:42:00,39.0,33.0,30.13,WNW,292,3.0,7.0,80,0.00,,,0.43,,2013-04-23 22:42:00,
2013-04-23 17:52:00,39.0,32.0,30.13,North,354,5.0,8.0,75,0.00,,,0.40,,2013-04-23 22:52:00,
2013-04-23 18:03:00,39.0,31.0,30.14,North,353,5.0,10.0,73,0.00,,,0.38,,2013-04-23 23:03:00,
2013-04-23 18:12:00,39.0,31.0,30.14,North,353,5.0,10.0,73,0.00,,,0.38,,2013-04-23 23:12:00,
2013-04-23 18:22:00,39.0,31.0,30.14,NNW,334,3.0,7.0,73,0.00,,,0.35,,2013-04-23 23:22:00,
2013-04-23 18:32:00,39.0,31.0,30.13,North,4,4.0,5.0,72,0.00,,,0.33,,2013-04-23 23:32:00,
2013-04-23 18:42:00,39.0,31.0,30.13,North,5,1.0,5.0,74,0.00,,,0.32,,2013-04-23 23:42:00,
2013-04-23 18:52:00,39.0,31.0,30.13,North,5,1.0,5.0,74,0.00,,,0.32,,2013-04-23 23:52:00,
2013-04-23 19:01:00,39.0,32.0,30.14,NW,317,2.0,6.0,77,0.00,,,0.31,,2013-04-24 00:01:00,
2013-04-23 19:11:00,39.0,32.0,30.14,NW,317,2.0,6.0,77,0.00,,,0.31,,2013-04-24 00:11:00,
2013-04-23 19:21:00,40.0,32.0,30.13,NW,310,4.0,7.0,74,0.00,,,0.30,,2013-04-24 00:21:00,
2013-04-23 19:32:00,39.0,31.0,30.14,NNW,338,4.0,9.0,73,0.00,,,0.26,,2013-04-24 00:32:00,
2013-04-23 19:41:00,39.0,31.0,30.14,NNW,338,4.0,9.0,73,0.00,,,0.26,,2013-04-24 00:41:00,
2013-04-23 19:52:00,39.0,31.0,30.15,NNW,342,5.0,8.0,73,0.00,,,0.26,,2013-04-24 00:52:00,
2013-04-23 20:01:00,39.0,30.0,30.15,North,355,5.0,11.0,69,0.00,,,0.24,,2013-04-24 01:01:00,
2013-04-23 20:11:00,39.0,30.0,30.15,North,355,5.0,11.0,69,0.00,,,0.24,,2013-04-24 01:11:00,
2013-04-23 20:21:00,39.0,30.0,30.15,NNW,331,5.0,8.0,70,0.00,,,0.24,,2013-04-24 01:21:00,
2013-04-23 20:32:00,38.0,29.0,30.16,NNW,327,6.0,10.0,69,0.00,,,0.23,,2013-04-24 01:32:00,
2013-04-23 20:42:00,38.0,29.0,30.16,NNW,327,6.0,10.0,69,0.00,,,0.23,,2013-04-24 01:42:00,
2013-04-23 20:52:00,38.0,29.0,30.17,NNW,328,4.0,6.0,71,0.00,,,0.23,,2013-04-24 01:52:00,
2013-04-23 21:02:00,38.0,30.0,30.18,NW,312,2.0,6.0,73,0.00,,,0.23,,2013-04-24 02:02:00,
2013-04-23 21:16:00,38.0,30.0,30.18,NW,312,1.0,5.0,73,0.00,,,0.23,,2013-04-24 02:16:00,
2013-04-23 21:27:00,38.0,30.0,30.18,NW,312,1.0,5.0,73,0.00,,,0.23,,2013-04-24 02:27:00,
2013-04-23 21:46:00,38.0,30.0,30.19,NW,312,2.0,5.0,72,0.00,,,0.22,,2013-04-24 02:46:00,
2013-04-23 21:55:00,38.0,30.0,30.19,NW,312,2.0,5.0,73,0.00,,,0.22,,2013-04-24 02:55:00,
2013-04-23 22:08:00,38.0,30.0,30.20,NW,312,2.0,5.0,74,0.00,,,0.22,,2013-04-24 03:08:00,
2013-04-23 22:48:00,37.0,28.0,30.21,NW,324,4.0,7.0,70,0.00,,,0.22,,2013-04-24 03:48:00,
2013-04-23 22:55:00,37.0,29.0,30.22,NW,318,3.0,8.0,72,0.00,,,0.22,,2013-04-24 03:55:00,
2013-04-23 23:03:00,37.0,29.0,30.21,NNW,333,4.0,9.0,72,0.00,,,0.22,,2013-04-24 04:03:00,
2013-04-23 23:12:00,37.0,29.0,30.21,NNW,333,4.0,9.0,72,0.00,,,0.22,,2013-04-24 04:12:00,
2013-04-23 23:23:00,36.0,28.0,30.22,NW,320,3.0,8.0,72,0.00,,,0.22,,2013-04-24 04:23:00,
2013-04-23 23:33:00,36.0,28.0,30.22,NW,306,3.0,7.0,73,0.00,,,0.22,,2013-04-24 04:33:00,
2013-04-23 23:43:00,36.0,28.0,30.22,NW,306,3.0,7.0,73,0.00,,,0.22,,2013-04-24 04:43:00,
2013-04-23 23:52:00,36.0,28.0,30.22,NW,323,3.0,6.0,73,0.00,,,0.22,,2013-04-24 04:52:00,